owner,sensor,date,latitude,longitude,vertical_datum,wind_speed,wind_to_direction,wind_speed_of_gust,qcFlag 
FIT,ioos:station:wmo:SIPF1:1,2019-07-01T00:00:00Z,27.8620,-80.4450,1.0,8.5,217.0,99.0,'11111222,11111222,11144222' 
FIT,ioos:station:wmo:SIPF1:1,2019-07-01T00:15:00Z,27.8620,-80.4450,1.0,5.0,223.0,99.0,'11111222,11111222,11144222' 
FIT,ioos:station:wmo:SIPF1:1,2019-07-01T00:30:00Z,27.8620,-80.4450,1.0,3.8,220.0,99.0,'11111222,11111222,11144222' 
FIT,ioos:station:wmo:SIPF1:1,2019-07-01T00:45:00Z,27.8620,-80.4450,1.0,2.6,210.0,-9999.0,'11111222,11111222,11111222' 
FIT,ioos:station:wmo:SIPF1:1,2019-07-01T01:00:00Z,27.8620,-80.4450,1.0,3.0,237.0,99.0,'11111222,11111222,11144222' 
FIT,ioos:station:wmo:SIPF1:1,2019-07-01T01:15:00Z,27.8620,-80.4450,1.0,2.4,232.0,99.0,'11111222,11111222,11144222' 
FIT,ioos:station:wmo:SIPF1:1,2019-07-01T01:30:00Z,27.8620,-80.4450,1.0,2.6,239.0,99.0,'11111222,11111222,11144222' 
FIT,ioos:station:wmo:SIPF1:1,2019-07-01T01:45:00Z,27.8620,-80.4450,1.0,3.1,250.0,-9999.0,'11111222,11111222,11111222' 
FIT,ioos:station:wmo:SIPF1:1,2019-07-01T02:00:00Z,27.8620,-80.4450,1.0,3.1,251.0,99.0,'11111222,11111222,11144222' 
FIT,ioos:station:wmo:SIPF1:1,2019-07-01T02:15:00Z,27.8620,-80.4450,1.0,3.1,248.0,99.0,'11111222,11111222,11144222' 
FIT,ioos:station:wmo:SIPF1:1,2019-07-01T02:30:00Z,27.8620,-80.4450,1.0,2.8,249.0,99.0,'11111222,11111222,11144222' 
FIT,ioos:station:wmo:SIPF1:1,2019-07-01T02:45:00Z,27.8620,-80.4450,1.0,3.1,250.0,-9999.0,'11111222,11111222,11111222' 
FIT,ioos:station:wmo:SIPF1:1,2019-07-01T03:00:00Z,27.8620,-80.4450,1.0,3.7,256.0,99.0,'11111222,11111222,11144222' 
FIT,ioos:station:wmo:SIPF1:1,2019-07-01T03:15:00Z,27.8620,-80.4450,1.0,4.6,254.0,99.0,'11111222,11111222,11144222' 
FIT,ioos:station:wmo:SIPF1:1,2019-07-01T03:30:00Z,27.8620,-80.4450,1.0,3.9,248.0,99.0,'11111222,11111222,11144222' 
FIT,ioos:station:wmo:SIPF1:1,2019-07-01T03:45:00Z,27.8620,-80.4450,1.0,4.1,250.0,-9999.0,'11111222,11111222,11111222' 
FIT,ioos:station:wmo:SIPF1:1,2019-07-01T04:00:00Z,27.8620,-80.4450,1.0,4.6,240.0,99.0,'11111222,11111222,11144222' 
FIT,ioos:station:wmo:SIPF1:1,2019-07-01T04:15:00Z,27.8620,-80.4450,1.0,4.0,241.0,99.0,'11111222,11111222,11144222' 
FIT,ioos:station:wmo:SIPF1:1,2019-07-01T04:30:00Z,27.8620,-80.4450,1.0,3.3,254.0,99.0,'11111222,11111222,11144222' 
FIT,ioos:station:wmo:SIPF1:1,2019-07-01T04:45:00Z,27.8620,-80.4450,1.0,3.1,270.0,-9999.0,'11111222,11111222,11111222' 
FIT,ioos:station:wmo:SIPF1:1,2019-07-01T05:00:00Z,27.8620,-80.4450,1.0,3.1,267.0,99.0,'11111222,11111222,11144222' 
FIT,ioos:station:wmo:SIPF1:1,2019-07-01T05:15:00Z,27.8620,-80.4450,1.0,3.1,273.0,99.0,'11111222,11111222,11144222' 
FIT,ioos:station:wmo:SIPF1:1,2019-07-01T05:30:00Z,27.8620,-80.4450,1.0,3.5,269.0,99.0,'11111222,11111222,11144222' 
FIT,ioos:station:wmo:SIPF1:1,2019-07-01T05:45:00Z,27.8620,-80.4450,1.0,3.6,270.0,-9999.0,'11111222,11111222,11111222' 
FIT,ioos:station:wmo:SIPF1:1,2019-07-01T06:00:00Z,27.8620,-80.4450,1.0,3.3,262.0,99.0,'11111222,11111222,11144222' 
FIT,ioos:station:wmo:SIPF1:1,2019-07-01T06:15:00Z,27.8620,-80.4450,1.0,3.3,264.0,99.0,'11111222,11111222,11144222' 
FIT,ioos:station:wmo:SIPF1:1,2019-07-01T06:30:00Z,27.8620,-80.4450,1.0,3.6,249.0,99.0,'11111222,11111222,11144222' 
FIT,ioos:station:wmo:SIPF1:1,2019-07-01T06:45:00Z,27.8620,-80.4450,1.0,3.6,260.0,-9999.0,'11111222,11111222,11111222' 
FIT,ioos:station:wmo:SIPF1:1,2019-07-01T07:00:00Z,27.8620,-80.4450,1.0,3.7,270.0,99.0,'11111222,11111222,11144222' 
FIT,ioos:station:wmo:SIPF1:1,2019-07-01T07:15:00Z,27.8620,-80.4450,1.0,3.2,272.0,99.0,'11111222,11111222,11144222' 
FIT,ioos:station:wmo:SIPF1:1,2019-07-01T07:30:00Z,27.8620,-80.4450,1.0,3.2,278.0,99.0,'11111222,11111222,11144222' 
FIT,ioos:station:wmo:SIPF1:1,2019-07-01T07:45:00Z,27.8620,-80.4450,1.0,3.1,280.0,-9999.0,'11111222,11111222,11111222' 
FIT,ioos:station:wmo:SIPF1:1,2019-07-01T08:00:00Z,27.8620,-80.4450,1.0,3.4,272.0,99.0,'11111222,11111222,11144222' 
FIT,ioos:station:wmo:SIPF1:1,2019-07-01T08:15:00Z,27.8620,-80.4450,1.0,3.1,267.0,99.0,'11111222,11111222,11144222' 
FIT,ioos:station:wmo:SIPF1:1,2019-07-01T08:30:00Z,27.8620,-80.4450,1.0,3.1,273.0,99.0,'11111222,11111222,11144222' 
FIT,ioos:station:wmo:SIPF1:1,2019-07-01T08:45:00Z,27.8620,-80.4450,1.0,3.1,270.0,-9999.0,'11111222,11111222,11111222' 
FIT,ioos:station:wmo:SIPF1:1,2019-07-01T09:00:00Z,27.8620,-80.4450,1.0,3.4,268.0,99.0,'11111222,11111222,11144222' 
FIT,ioos:station:wmo:SIPF1:1,2019-07-01T09:15:00Z,27.8620,-80.4450,1.0,2.8,259.0,99.0,'11111222,11111222,11144222' 
FIT,ioos:station:wmo:SIPF1:1,2019-07-01T09:30:00Z,27.8620,-80.4450,1.0,2.8,268.0,99.0,'11111222,11111222,11144222' 
FIT,ioos:station:wmo:SIPF1:1,2019-07-01T09:45:00Z,27.8620,-80.4450,1.0,3.1,270.0,-9999.0,'11111222,11111222,11111222' 
FIT,ioos:station:wmo:SIPF1:1,2019-07-01T10:00:00Z,27.8620,-80.4450,1.0,3.2,278.0,99.0,'11111222,11111222,11144222' 
FIT,ioos:station:wmo:SIPF1:1,2019-07-01T10:15:00Z,27.8620,-80.4450,1.0,3.3,285.0,99.0,'11111222,11111222,11144222' 
FIT,ioos:station:wmo:SIPF1:1,2019-07-01T10:30:00Z,27.8620,-80.4450,1.0,2.8,288.0,99.0,'11111222,11111222,11144222' 
FIT,ioos:station:wmo:SIPF1:1,2019-07-01T10:45:00Z,27.8620,-80.4450,1.0,3.1,280.0,-9999.0,'11111222,11111222,11111222' 
FIT,ioos:station:wmo:SIPF1:1,2019-07-01T11:00:00Z,27.8620,-80.4450,1.0,2.7,280.0,99.0,'11111222,11111222,11144222' 
FIT,ioos:station:wmo:SIPF1:1,2019-07-01T11:15:00Z,27.8620,-80.4450,1.0,2.7,277.0,99.0,'11111222,11111222,11144222' 
FIT,ioos:station:wmo:SIPF1:1,2019-07-01T11:30:00Z,27.8620,-80.4450,1.0,2.8,275.0,99.0,'11111222,11111222,11144222' 
FIT,ioos:station:wmo:SIPF1:1,2019-07-01T11:45:00Z,27.8620,-80.4450,1.0,3.1,270.0,-9999.0,'11111222,11111222,11111222' 
FIT,ioos:station:wmo:SIPF1:1,2019-07-01T12:00:00Z,27.8620,-80.4450,1.0,3.0,292.0,99.0,'11111222,11111222,11144222' 
FIT,ioos:station:wmo:SIPF1:1,2019-07-01T12:15:00Z,27.8620,-80.4450,1.0,3.3,294.0,99.0,'11111222,11111222,11144222' 
FIT,ioos:station:wmo:SIPF1:1,2019-07-01T12:30:00Z,27.8620,-80.4450,1.0,3.4,300.0,99.0,'11111222,11111222,11144222' 
FIT,ioos:station:wmo:SIPF1:1,2019-07-01T12:45:00Z,27.8620,-80.4450,1.0,3.6,300.0,-9999.0,'11111222,11111222,11111222' 
FIT,ioos:station:wmo:SIPF1:1,2019-07-01T13:00:00Z,27.8620,-80.4450,1.0,3.6,288.0,99.0,'11111222,11111222,11144222' 
FIT,ioos:station:wmo:SIPF1:1,2019-07-01T13:15:00Z,27.8620,-80.4450,1.0,3.7,290.0,99.0,'11111222,11111222,11144222' 
FIT,ioos:station:wmo:SIPF1:1,2019-07-01T13:30:00Z,27.8620,-80.4450,1.0,3.5,302.0,99.0,'11111222,11111222,11144222' 
FIT,ioos:station:wmo:SIPF1:1,2019-07-01T13:45:00Z,27.8620,-80.4450,1.0,3.6,310.0,-9999.0,'11111222,11111222,11111222' 
FIT,ioos:station:wmo:SIPF1:1,2019-07-01T14:00:00Z,27.8620,-80.4450,1.0,3.8,311.0,99.0,'11111222,11111222,11144222' 
FIT,ioos:station:wmo:SIPF1:1,2019-07-01T14:15:00Z,27.8620,-80.4450,1.0,4.4,307.0,99.0,'11111222,11111222,11144222' 
FIT,ioos:station:wmo:SIPF1:1,2019-07-01T14:30:00Z,27.8620,-80.4450,1.0,4.6,322.0,99.0,'11111222,11111222,11144222' 
FIT,ioos:station:wmo:SIPF1:1,2019-07-01T14:45:00Z,27.8620,-80.4450,1.0,4.5,332.0,99.0,'11111222,11111222,11144222' 
FIT,ioos:station:wmo:SIPF1:1,2019-07-01T15:00:00Z,27.8620,-80.4450,1.0,3.9,334.0,99.0,'11111222,11111222,11144222' 
FIT,ioos:station:wmo:SIPF1:1,2019-07-01T15:15:00Z,27.8620,-80.4450,1.0,2.8,19.0,99.0,'11111222,11111222,11144222' 
FIT,ioos:station:wmo:SIPF1:1,2019-07-01T15:30:00Z,27.8620,-80.4450,1.0,3.5,33.0,99.0,'11111222,11111222,11144222' 
FIT,ioos:station:wmo:SIPF1:1,2019-07-01T15:45:00Z,27.8620,-80.4450,1.0,2.7,42.0,99.0,'11111222,11111222,11144222' 
FIT,ioos:station:wmo:SIPF1:1,2019-07-01T16:00:00Z,27.8620,-80.4450,1.0,3.1,40.0,-9999.0,'11111222,11111222,11111222' 
FIT,ioos:station:wmo:SIPF1:1,2019-07-01T16:15:00Z,27.8620,-80.4450,1.0,2.9,52.0,99.0,'11111222,11111222,11144222' 
FIT,ioos:station:wmo:SIPF1:1,2019-07-01T16:30:00Z,27.8620,-80.4450,1.0,3.2,50.0,99.0,'11111222,11111222,11144222' 
FIT,ioos:station:wmo:SIPF1:1,2019-07-01T16:45:00Z,27.8620,-80.4450,1.0,3.1,50.0,-9999.0,'11111222,11111222,11111222' 
FIT,ioos:station:wmo:SIPF1:1,2019-07-01T17:00:00Z,27.8620,-80.4450,1.0,3.0,57.0,99.0,'11111222,11111222,11144222' 
FIT,ioos:station:wmo:SIPF1:1,2019-07-01T17:15:00Z,27.8620,-80.4450,1.0,2.9,62.0,99.0,'11111222,11111222,11144222' 
FIT,ioos:station:wmo:SIPF1:1,2019-07-01T17:30:00Z,27.8620,-80.4450,1.0,2.9,81.0,99.0,'11111222,11111222,11144222' 
FIT,ioos:station:wmo:SIPF1:1,2019-07-01T17:45:00Z,27.8620,-80.4450,1.0,2.6,100.0,-9999.0,'11111222,11111222,11111222' 
FIT,ioos:station:wmo:SIPF1:1,2019-07-01T18:00:00Z,27.8620,-80.4450,1.0,2.9,87.0,99.0,'11111222,11111222,11144222' 
FIT,ioos:station:wmo:SIPF1:1,2019-07-01T18:15:00Z,27.8620,-80.4450,1.0,2.9,98.0,99.0,'11111222,11111222,11144222' 
FIT,ioos:station:wmo:SIPF1:1,2019-07-01T18:30:00Z,27.8620,-80.4450,1.0,3.0,104.0,99.0,'11111222,11111222,11144222' 
FIT,ioos:station:wmo:SIPF1:1,2019-07-01T18:45:00Z,27.8620,-80.4450,1.0,3.6,110.0,-9999.0,'11111222,11111222,11111222' 
FIT,ioos:station:wmo:SIPF1:1,2019-07-01T19:00:00Z,27.8620,-80.4450,1.0,3.4,105.0,99.0,'11111222,11111222,11144222' 
FIT,ioos:station:wmo:SIPF1:1,2019-07-01T19:15:00Z,27.8620,-80.4450,1.0,3.4,103.0,99.0,'11111222,11111222,11144222' 
FIT,ioos:station:wmo:SIPF1:1,2019-07-01T19:30:00Z,27.8620,-80.4450,1.0,3.0,109.0,99.0,'11111222,11111222,11144222' 
FIT,ioos:station:wmo:SIPF1:1,2019-07-01T19:45:00Z,27.8620,-80.4450,1.0,3.1,110.0,-9999.0,'11111222,11111222,11111222' 
FIT,ioos:station:wmo:SIPF1:1,2019-07-01T20:00:00Z,27.8620,-80.4450,1.0,3.0,120.0,99.0,'11111222,11111222,11144222' 
FIT,ioos:station:wmo:SIPF1:1,2019-07-01T20:15:00Z,27.8620,-80.4450,1.0,3.2,104.0,99.0,'11111222,11111222,11144222' 
FIT,ioos:station:wmo:SIPF1:1,2019-07-01T20:30:00Z,27.8620,-80.4450,1.0,3.4,93.0,99.0,'11111222,11111222,11144222' 
FIT,ioos:station:wmo:SIPF1:1,2019-07-01T20:45:00Z,27.8620,-80.4450,1.0,3.1,90.0,-9999.0,'11111222,11111222,11111222' 
FIT,ioos:station:wmo:SIPF1:1,2019-07-01T21:00:00Z,27.8620,-80.4450,1.0,3.5,93.0,99.0,'11111222,11111222,11144222' 
FIT,ioos:station:wmo:SIPF1:1,2019-07-01T21:15:00Z,27.8620,-80.4450,1.0,3.9,87.0,99.0,'11111222,11111222,11144222' 
FIT,ioos:station:wmo:SIPF1:1,2019-07-01T21:30:00Z,27.8620,-80.4450,1.0,3.6,90.0,99.0,'11111222,11111222,11144222' 
FIT,ioos:station:wmo:SIPF1:1,2019-07-01T21:45:00Z,27.8620,-80.4450,1.0,3.6,90.0,-9999.0,'11111222,11111222,11111222' 
FIT,ioos:station:wmo:SIPF1:1,2019-07-01T22:00:00Z,27.8620,-80.4450,1.0,3.8,88.0,99.0,'11111222,11111222,11144222' 
FIT,ioos:station:wmo:SIPF1:1,2019-07-01T22:15:00Z,27.8620,-80.4450,1.0,3.7,97.0,99.0,'11111222,11111222,11144222' 
FIT,ioos:station:wmo:SIPF1:1,2019-07-01T22:30:00Z,27.8620,-80.4450,1.0,3.6,101.0,99.0,'11111222,11111222,11144222' 
FIT,ioos:station:wmo:SIPF1:1,2019-07-01T22:45:00Z,27.8620,-80.4450,1.0,4.1,110.0,-9999.0,'11111222,11111222,11111222' 
FIT,ioos:station:wmo:SIPF1:1,2019-07-01T23:00:00Z,27.8620,-80.4450,1.0,3.8,115.0,99.0,'11111222,11111222,11144222' 
FIT,ioos:station:wmo:SIPF1:1,2019-07-01T23:15:00Z,27.8620,-80.4450,1.0,3.8,117.0,99.0,'11111222,11111222,11144222' 
FIT,ioos:station:wmo:SIPF1:1,2019-07-01T23:30:00Z,27.8620,-80.4450,1.0,3.8,131.0,99.0,'11111222,11111222,11144222' 
FIT,ioos:station:wmo:SIPF1:1,2019-07-01T23:45:00Z,27.8620,-80.4450,1.0,3.1,140.0,-9999.0,'11111222,11111222,11111222' 
FIT,ioos:station:wmo:SIPF1:1,2019-07-02T00:00:00Z,27.8620,-80.4450,1.0,3.0,139.0,99.0,'11111222,11111222,11144222' 
FIT,ioos:station:wmo:SIPF1:1,2019-07-02T00:15:00Z,27.8620,-80.4450,1.0,3.3,146.0,99.0,'11111222,11111222,11144222' 
FIT,ioos:station:wmo:SIPF1:1,2019-07-02T00:30:00Z,27.8620,-80.4450,1.0,3.6,150.0,99.0,'11111222,11111222,11144222' 
FIT,ioos:station:wmo:SIPF1:1,2019-07-02T00:45:00Z,27.8620,-80.4450,1.0,4.1,150.0,-9999.0,'11111222,11111222,11111222' 
FIT,ioos:station:wmo:SIPF1:1,2019-07-02T01:00:00Z,27.8620,-80.4450,1.0,4.5,164.0,99.0,'11111222,11111222,11144222' 
FIT,ioos:station:wmo:SIPF1:1,2019-07-02T01:15:00Z,27.8620,-80.4450,1.0,5.0,172.0,99.0,'11111222,11111222,11144222' 
FIT,ioos:station:wmo:SIPF1:1,2019-07-02T01:30:00Z,27.8620,-80.4450,1.0,4.1,174.0,99.0,'11111222,11111222,11144222' 
FIT,ioos:station:wmo:SIPF1:1,2019-07-02T01:45:00Z,27.8620,-80.4450,1.0,3.6,170.0,-9999.0,'11111222,11111222,11111222' 
FIT,ioos:station:wmo:SIPF1:1,2019-07-02T02:00:00Z,27.8620,-80.4450,1.0,3.7,170.0,99.0,'11111222,11111222,11144222' 
FIT,ioos:station:wmo:SIPF1:1,2019-07-02T02:15:00Z,27.8620,-80.4450,1.0,3.5,167.0,99.0,'11111222,11111222,11144222' 
FIT,ioos:station:wmo:SIPF1:1,2019-07-02T02:30:00Z,27.8620,-80.4450,1.0,3.7,197.0,99.0,'11111222,11111222,11144222' 
FIT,ioos:station:wmo:SIPF1:1,2019-07-02T02:45:00Z,27.8620,-80.4450,1.0,4.1,220.0,-9999.0,'11111222,11111222,11111222' 
FIT,ioos:station:wmo:SIPF1:1,2019-07-02T03:00:00Z,27.8620,-80.4450,1.0,3.2,228.0,99.0,'11111222,11111222,11144222' 
FIT,ioos:station:wmo:SIPF1:1,2019-07-02T03:15:00Z,27.8620,-80.4450,1.0,2.8,230.0,99.0,'11111222,11111222,11144222' 
FIT,ioos:station:wmo:SIPF1:1,2019-07-02T03:30:00Z,27.8620,-80.4450,1.0,3.0,219.0,99.0,'11111222,11111222,11144222' 
FIT,ioos:station:wmo:SIPF1:1,2019-07-02T03:45:00Z,27.8620,-80.4450,1.0,3.6,220.0,-9999.0,'11111222,11111222,11111222' 
FIT,ioos:station:wmo:SIPF1:1,2019-07-02T04:00:00Z,27.8620,-80.4450,1.0,3.4,223.0,99.0,'11111222,11111222,11144222' 
FIT,ioos:station:wmo:SIPF1:1,2019-07-02T04:15:00Z,27.8620,-80.4450,1.0,3.2,225.0,99.0,'11111222,11111222,11144222' 
FIT,ioos:station:wmo:SIPF1:1,2019-07-02T04:30:00Z,27.8620,-80.4450,1.0,2.8,237.0,99.0,'11111222,11111222,11144222' 
FIT,ioos:station:wmo:SIPF1:1,2019-07-02T04:45:00Z,27.8620,-80.4450,1.0,2.6,240.0,-9999.0,'11111222,11111222,11111222' 
FIT,ioos:station:wmo:SIPF1:1,2019-07-02T05:00:00Z,27.8620,-80.4450,1.0,2.5,245.0,99.0,'11111222,11111222,11144222' 
FIT,ioos:station:wmo:SIPF1:1,2019-07-02T05:15:00Z,27.8620,-80.4450,1.0,2.4,245.0,99.0,'11111222,11111222,11144222' 
FIT,ioos:station:wmo:SIPF1:1,2019-07-02T05:30:00Z,27.8620,-80.4450,1.0,2.2,236.0,99.0,'11111222,11111222,11144222' 
FIT,ioos:station:wmo:SIPF1:1,2019-07-02T05:45:00Z,27.8620,-80.4450,1.0,2.1,230.0,-9999.0,'11111222,11111222,11111222' 
FIT,ioos:station:wmo:SIPF1:1,2019-07-02T06:00:00Z,27.8620,-80.4450,1.0,2.5,255.0,99.0,'11111222,11111222,11144222' 
FIT,ioos:station:wmo:SIPF1:1,2019-07-02T06:15:00Z,27.8620,-80.4450,1.0,2.9,273.0,99.0,'11111222,11111222,11144222' 
FIT,ioos:station:wmo:SIPF1:1,2019-07-02T06:30:00Z,27.8620,-80.4450,1.0,2.4,283.0,99.0,'11111222,11111222,11144222' 
FIT,ioos:station:wmo:SIPF1:1,2019-07-02T06:45:00Z,27.8620,-80.4450,1.0,2.6,300.0,-9999.0,'11111222,11111222,11111222' 
FIT,ioos:station:wmo:SIPF1:1,2019-07-02T07:00:00Z,27.8620,-80.4450,1.0,2.1,309.0,99.0,'11111222,11111222,11144222' 
FIT,ioos:station:wmo:SIPF1:1,2019-07-02T07:15:00Z,27.8620,-80.4450,1.0,3.0,313.0,99.0,'11111222,11111222,11144222' 
FIT,ioos:station:wmo:SIPF1:1,2019-07-02T07:30:00Z,27.8620,-80.4450,1.0,3.2,310.0,99.0,'11111222,11111222,11144222' 
FIT,ioos:station:wmo:SIPF1:1,2019-07-02T07:45:00Z,27.8620,-80.4450,1.0,3.6,310.0,-9999.0,'11111222,11111222,11111222' 
FIT,ioos:station:wmo:SIPF1:1,2019-07-02T08:00:00Z,27.8620,-80.4450,1.0,4.1,308.0,99.0,'11111222,11111222,11144222' 
FIT,ioos:station:wmo:SIPF1:1,2019-07-02T08:15:00Z,27.8620,-80.4450,1.0,3.9,314.0,99.0,'11111222,11111222,11144222' 
FIT,ioos:station:wmo:SIPF1:1,2019-07-02T08:30:00Z,27.8620,-80.4450,1.0,3.3,322.0,99.0,'11111222,11111222,11144222' 
FIT,ioos:station:wmo:SIPF1:1,2019-07-02T08:45:00Z,27.8620,-80.4450,1.0,3.1,310.0,-9999.0,'11111222,11111222,11111222' 
FIT,ioos:station:wmo:SIPF1:1,2019-07-02T09:00:00Z,27.8620,-80.4450,1.0,3.3,306.0,99.0,'11111222,11111222,11144222' 
FIT,ioos:station:wmo:SIPF1:1,2019-07-02T09:15:00Z,27.8620,-80.4450,1.0,3.2,304.0,99.0,'11111222,11111222,11144222' 
FIT,ioos:station:wmo:SIPF1:1,2019-07-02T09:30:00Z,27.8620,-80.4450,1.0,3.1,306.0,99.0,'11111222,11111222,11144222' 
FIT,ioos:station:wmo:SIPF1:1,2019-07-02T09:45:00Z,27.8620,-80.4450,1.0,3.1,300.0,-9999.0,'11111222,11111222,11111222' 
FIT,ioos:station:wmo:SIPF1:1,2019-07-02T10:00:00Z,27.8620,-80.4450,1.0,3.3,303.0,99.0,'11111222,11111222,11144222' 
FIT,ioos:station:wmo:SIPF1:1,2019-07-02T10:15:00Z,27.8620,-80.4450,1.0,3.1,286.0,99.0,'11111222,11111222,11144222' 
FIT,ioos:station:wmo:SIPF1:1,2019-07-02T10:30:00Z,27.8620,-80.4450,1.0,3.3,289.0,99.0,'11111222,11111222,11144222' 
FIT,ioos:station:wmo:SIPF1:1,2019-07-02T10:45:00Z,27.8620,-80.4450,1.0,3.1,290.0,-9999.0,'11111222,11111222,11111222' 
FIT,ioos:station:wmo:SIPF1:1,2019-07-02T11:00:00Z,27.8620,-80.4450,1.0,3.5,295.0,99.0,'11111222,11111222,11144222' 
FIT,ioos:station:wmo:SIPF1:1,2019-07-02T11:15:00Z,27.8620,-80.4450,1.0,3.3,297.0,99.0,'11111222,11111222,11144222' 
FIT,ioos:station:wmo:SIPF1:1,2019-07-02T11:30:00Z,27.8620,-80.4450,1.0,3.1,299.0,99.0,'11111222,11111222,11144222' 
FIT,ioos:station:wmo:SIPF1:1,2019-07-02T11:45:00Z,27.8620,-80.4450,1.0,3.1,300.0,-9999.0,'11111222,11111222,11111222' 
FIT,ioos:station:wmo:SIPF1:1,2019-07-02T12:00:00Z,27.8620,-80.4450,1.0,2.6,307.0,99.0,'11111222,11111222,11144222' 
FIT,ioos:station:wmo:SIPF1:1,2019-07-02T12:15:00Z,27.8620,-80.4450,1.0,2.3,316.0,99.0,'11111222,11111222,11144222' 
FIT,ioos:station:wmo:SIPF1:1,2019-07-02T12:30:00Z,27.8620,-80.4450,1.0,3.7,331.0,99.0,'11111222,11111222,11144222' 
FIT,ioos:station:wmo:SIPF1:1,2019-07-02T12:45:00Z,27.8620,-80.4450,1.0,3.1,340.0,-9999.0,'11111222,11111222,11111222' 
FIT,ioos:station:wmo:SIPF1:1,2019-07-02T13:00:00Z,27.8620,-80.4450,1.0,2.8,348.0,99.0,'11111222,11111222,11144222' 
FIT,ioos:station:wmo:SIPF1:1,2019-07-02T13:15:00Z,27.8620,-80.4450,1.0,3.3,337.0,99.0,'11111222,11111222,11144222' 
FIT,ioos:station:wmo:SIPF1:1,2019-07-02T13:30:00Z,27.8620,-80.4450,1.0,3.3,333.0,99.0,'11111222,11111222,11144222' 
FIT,ioos:station:wmo:SIPF1:1,2019-07-02T13:45:00Z,27.8620,-80.4450,1.0,2.6,360.0,-9999.0,'11111222,11144222,11111222' 
FIT,ioos:station:wmo:SIPF1:1,2019-07-02T14:00:00Z,27.8620,-80.4450,1.0,2.4,16.0,99.0,'11111222,11111222,11144222' 
FIT,ioos:station:wmo:SIPF1:1,2019-07-02T14:15:00Z,27.8620,-80.4450,1.0,2.1,9.0,99.0,'11111222,11111222,11144222' 
FIT,ioos:station:wmo:SIPF1:1,2019-07-02T14:30:00Z,27.8620,-80.4450,1.0,2.3,17.0,99.0,'11111222,11111222,11144222' 
FIT,ioos:station:wmo:SIPF1:1,2019-07-02T14:45:00Z,27.8620,-80.4450,1.0,2.1,30.0,-9999.0,'11111222,11111222,11111222' 
FIT,ioos:station:wmo:SIPF1:1,2019-07-02T15:00:00Z,27.8620,-80.4450,1.0,2.7,30.0,99.0,'11111222,11111222,11144222' 
FIT,ioos:station:wmo:SIPF1:1,2019-07-02T15:15:00Z,27.8620,-80.4450,1.0,3.1,31.0,99.0,'11111222,11111222,11144222' 
FIT,ioos:station:wmo:SIPF1:1,2019-07-02T15:30:00Z,27.8620,-80.4450,1.0,2.5,33.0,99.0,'11111222,11111222,11144222' 
FIT,ioos:station:wmo:SIPF1:1,2019-07-02T15:45:00Z,27.8620,-80.4450,1.0,2.1,40.0,-9999.0,'11111222,11111222,11111222' 
FIT,ioos:station:wmo:SIPF1:1,2019-07-02T16:00:00Z,27.8620,-80.4450,1.0,2.5,59.0,99.0,'11111222,11111222,11144222' 
FIT,ioos:station:wmo:SIPF1:1,2019-07-02T16:15:00Z,27.8620,-80.4450,1.0,2.6,63.0,99.0,'11111222,11111222,11144222' 
FIT,ioos:station:wmo:SIPF1:1,2019-07-02T16:30:00Z,27.8620,-80.4450,1.0,3.1,68.0,99.0,'11111222,11111222,11144222' 
FIT,ioos:station:wmo:SIPF1:1,2019-07-02T16:45:00Z,27.8620,-80.4450,1.0,3.1,70.0,-9999.0,'11111222,11111222,11111222' 
FIT,ioos:station:wmo:SIPF1:1,2019-07-02T17:00:00Z,27.8620,-80.4450,1.0,2.8,72.0,99.0,'11111222,11111222,11144222' 
FIT,ioos:station:wmo:SIPF1:1,2019-07-02T17:15:00Z,27.8620,-80.4450,1.0,3.1,72.0,99.0,'11111222,11111222,11144222' 
FIT,ioos:station:wmo:SIPF1:1,2019-07-02T17:30:00Z,27.8620,-80.4450,1.0,3.2,65.0,99.0,'11111222,11111222,11144222' 
FIT,ioos:station:wmo:SIPF1:1,2019-07-02T17:45:00Z,27.8620,-80.4450,1.0,3.1,60.0,-9999.0,'11111222,11111222,11111222' 
FIT,ioos:station:wmo:SIPF1:1,2019-07-02T18:00:00Z,27.8620,-80.4450,1.0,2.8,65.0,99.0,'11111222,11111222,11144222' 
FIT,ioos:station:wmo:SIPF1:1,2019-07-02T18:15:00Z,27.8620,-80.4450,1.0,2.4,98.0,99.0,'11111222,11111222,11144222' 
FIT,ioos:station:wmo:SIPF1:1,2019-07-02T18:30:00Z,27.8620,-80.4450,1.0,2.1,119.0,99.0,'11111222,11111222,11144222' 
FIT,ioos:station:wmo:SIPF1:1,2019-07-02T18:45:00Z,27.8620,-80.4450,1.0,2.6,130.0,-9999.0,'11111222,11111222,11111222' 
FIT,ioos:station:wmo:SIPF1:1,2019-07-02T19:00:00Z,27.8620,-80.4450,1.0,2.8,123.0,99.0,'11111222,11111222,11144222' 
FIT,ioos:station:wmo:SIPF1:1,2019-07-02T19:15:00Z,27.8620,-80.4450,1.0,2.7,129.0,99.0,'11111222,11111222,11144222' 
FIT,ioos:station:wmo:SIPF1:1,2019-07-02T19:30:00Z,27.8620,-80.4450,1.0,2.8,122.0,99.0,'11111222,11111222,11144222' 
FIT,ioos:station:wmo:SIPF1:1,2019-07-02T19:45:00Z,27.8620,-80.4450,1.0,3.1,120.0,-9999.0,'11111222,11111222,11111222' 
FIT,ioos:station:wmo:SIPF1:1,2019-07-02T20:00:00Z,27.8620,-80.4450,1.0,2.5,115.0,99.0,'11111222,11111222,11144222' 
FIT,ioos:station:wmo:SIPF1:1,2019-07-02T20:15:00Z,27.8620,-80.4450,1.0,2.8,108.0,99.0,'11111222,11111222,11144222' 
FIT,ioos:station:wmo:SIPF1:1,2019-07-02T20:30:00Z,27.8620,-80.4450,1.0,3.1,113.0,99.0,'11111222,11111222,11144222' 
FIT,ioos:station:wmo:SIPF1:1,2019-07-02T20:45:00Z,27.8620,-80.4450,1.0,2.6,120.0,-9999.0,'11111222,11111222,11111222' 
FIT,ioos:station:wmo:SIPF1:1,2019-07-02T21:00:00Z,27.8620,-80.4450,1.0,2.3,132.0,99.0,'11111222,11111222,11144222' 
FIT,ioos:station:wmo:SIPF1:1,2019-07-02T21:15:00Z,27.8620,-80.4450,1.0,2.5,131.0,99.0,'11111222,11111222,11144222' 
FIT,ioos:station:wmo:SIPF1:1,2019-07-02T21:30:00Z,27.8620,-80.4450,1.0,2.6,119.0,99.0,'11111222,11111222,11144222' 
FIT,ioos:station:wmo:SIPF1:1,2019-07-02T21:45:00Z,27.8620,-80.4450,1.0,2.6,120.0,-9999.0,'11111222,11111222,11111222' 
FIT,ioos:station:wmo:SIPF1:1,2019-07-02T22:00:00Z,27.8620,-80.4450,1.0,2.5,116.0,99.0,'11111222,11111222,11144222' 
FIT,ioos:station:wmo:SIPF1:1,2019-07-02T22:15:00Z,27.8620,-80.4450,1.0,2.7,120.0,99.0,'11111222,11111222,11144222' 
FIT,ioos:station:wmo:SIPF1:1,2019-07-02T22:30:00Z,27.8620,-80.4450,1.0,2.9,134.0,99.0,'11111222,11111222,11144222' 
FIT,ioos:station:wmo:SIPF1:1,2019-07-02T22:45:00Z,27.8620,-80.4450,1.0,3.1,130.0,-9999.0,'11111222,11111222,11111222' 
FIT,ioos:station:wmo:SIPF1:1,2019-07-02T23:00:00Z,27.8620,-80.4450,1.0,2.2,113.0,99.0,'11111222,11111222,11144222' 
FIT,ioos:station:wmo:SIPF1:1,2019-07-02T23:15:00Z,27.8620,-80.4450,1.0,2.4,131.0,99.0,'11111222,11111222,11144222' 
FIT,ioos:station:wmo:SIPF1:1,2019-07-02T23:30:00Z,27.8620,-80.4450,1.0,2.9,138.0,99.0,'11111222,11111222,11144222' 
FIT,ioos:station:wmo:SIPF1:1,2019-07-02T23:45:00Z,27.8620,-80.4450,1.0,2.6,150.0,-9999.0,'11111222,11111222,11111222' 
FIT,ioos:station:wmo:SIPF1:1,2019-07-03T00:00:00Z,27.8620,-80.4450,1.0,3.0,140.0,99.0,'11111222,11111222,11144222' 
FIT,ioos:station:wmo:SIPF1:1,2019-07-03T00:15:00Z,27.8620,-80.4450,1.0,2.8,151.0,99.0,'11111222,11111222,11144222' 
FIT,ioos:station:wmo:SIPF1:1,2019-07-03T00:30:00Z,27.8620,-80.4450,1.0,3.4,155.0,99.0,'11111222,11111222,11144222' 
FIT,ioos:station:wmo:SIPF1:1,2019-07-03T00:45:00Z,27.8620,-80.4450,1.0,3.6,150.0,-9999.0,'11111222,11111222,11111222' 
FIT,ioos:station:wmo:SIPF1:1,2019-07-03T01:00:00Z,27.8620,-80.4450,1.0,3.7,154.0,99.0,'11111222,11111222,11144222' 
FIT,ioos:station:wmo:SIPF1:1,2019-07-03T01:15:00Z,27.8620,-80.4450,1.0,3.6,156.0,99.0,'11111222,11111222,11144222' 
FIT,ioos:station:wmo:SIPF1:1,2019-07-03T01:30:00Z,27.8620,-80.4450,1.0,3.7,162.0,99.0,'11111222,11111222,11144222' 
FIT,ioos:station:wmo:SIPF1:1,2019-07-03T01:45:00Z,27.8620,-80.4450,1.0,3.6,170.0,-9999.0,'11111222,11111222,11111222' 
FIT,ioos:station:wmo:SIPF1:1,2019-07-03T02:00:00Z,27.8620,-80.4450,1.0,1.7,217.0,99.0,'11111222,11111222,11144222' 
FIT,ioos:station:wmo:SIPF1:1,2019-07-03T02:15:00Z,27.8620,-80.4450,1.0,1.9,235.0,99.0,'11111222,11111222,11144222' 
FIT,ioos:station:wmo:SIPF1:1,2019-07-03T02:30:00Z,27.8620,-80.4450,1.0,1.7,249.0,99.0,'11111222,11111222,11144222' 
FIT,ioos:station:wmo:SIPF1:1,2019-07-03T02:45:00Z,27.8620,-80.4450,1.0,2.6,250.0,-9999.0,'11111222,11111222,11111222' 
FIT,ioos:station:wmo:SIPF1:1,2019-07-03T03:00:00Z,27.8620,-80.4450,1.0,1.5,215.0,99.0,'11111222,11111222,11144222' 